SAS63Y EKCH-LEMG

Flight info

Callsign SAS63Y
Flight time 3h 12m
Altitude 33000
Route LANGO DCT SISGA DCT KOVIN DCT DUCRA UM728 RESMI UN857 DISAK DCT ARKIP DCT ARNAV DCT LMG DCT UVELI DCT OSMOB DCT ARVID/N0440F340 DCT PPN/N0441F350 N10 CJN L27 ANZAN N869 BLN
Aircraft A320/M-SDE1FGHIJ1RWXYZ/LB1

Departure

Time 2026-04-23 06:06
Airport Copenhagen Kastrup Airport (EKCH)

Arrival

Time 2026-04-23 09:18
Airport Málaga-Costa del Sol Airport (LEMG)
Time Latitude Longitude Altitude Speed Heading
2026-04-23 05:24 55.62851 12.64265 17 ft 0 kts 100°
2026-04-23 05:51 55.62853 12.64251 17 ft 4 kts 100°
2026-04-23 05:51 55.62856 12.64214 17 ft 4 kts 95°
2026-04-23 05:51 55.62853 12.64169 17 ft 4 kts 67°
2026-04-23 05:52 55.62844 12.64131 17 ft 2 kts 67°
2026-04-23 05:52 55.62833 12.64089 17 ft 4 kts 67°
2026-04-23 05:52 55.62825 12.64054 17 ft 4 kts 69°
2026-04-23 05:52 55.62819 12.64009 17 ft 4 kts 96°
2026-04-23 05:53 55.62823 12.63971 17 ft 4 kts 104°
2026-04-23 05:53 55.62829 12.63924 17 ft 4 kts 104°
2026-04-23 05:53 55.62835 12.63883 17 ft 1 kts 104°
2026-04-23 05:53 55.62835 12.63882 17 ft 0 kts 104°
2026-04-23 05:56 55.62831 12.63908 18 ft 4 kts 107°
2026-04-23 05:56 55.62805 12.63953 17 ft 7 kts 155°
2026-04-23 05:56 55.62754 12.63936 17 ft 9 kts 210°
2026-04-23 05:56 55.62694 12.63867 17 ft 10 kts 213°
2026-04-23 05:57 55.62637 12.63888 18 ft 10 kts 128°
2026-04-23 05:57 55.62594 12.64007 17 ft 13 kts 123°
2026-04-23 05:57 55.62540 12.64153 18 ft 15 kts 123°
2026-04-23 05:57 55.62481 12.64309 17 ft 16 kts 126°
2026-04-23 05:58 55.62413 12.64461 18 ft 16 kts 127°
2026-04-23 05:58 55.62356 12.64616 19 ft 14 kts 123°
2026-04-23 05:58 55.62307 12.64749 18 ft 11 kts 124°
2026-04-23 05:58 55.62240 12.64793 17 ft 12 kts 186°
2026-04-23 05:59 55.62161 12.64718 20 ft 14 kts 213°
2026-04-23 05:59 55.62071 12.64614 18 ft 14 kts 214°
2026-04-23 05:59 55.61990 12.64526 17 ft 15 kts 205°
2026-04-23 05:59 55.61888 12.64510 18 ft 15 kts 170°
2026-04-23 06:00 55.61782 12.64546 20 ft 15 kts 169°
2026-04-23 06:00 55.61685 12.64567 17 ft 14 kts 189°
2026-04-23 06:00 55.61598 12.64479 18 ft 15 kts 213°
2026-04-23 06:00 55.61509 12.64377 17 ft 16 kts 213°
2026-04-23 06:01 55.61412 12.64265 18 ft 17 kts 213°
2026-04-23 06:01 55.61311 12.64149 18 ft 17 kts 213°
2026-04-23 06:01 55.61216 12.64039 17 ft 15 kts 213°
2026-04-23 06:01 55.61123 12.63933 17 ft 17 kts 213°
2026-04-23 06:02 55.61022 12.63816 18 ft 17 kts 213°
2026-04-23 06:02 55.60928 12.63709 17 ft 16 kts 213°
2026-04-23 06:02 55.60833 12.63599 18 ft 17 kts 213°
2026-04-23 06:02 55.60732 12.63484 17 ft 17 kts 213°
2026-04-23 06:03 55.60638 12.63368 17 ft 16 kts 219°
2026-04-23 06:03 55.60556 12.63246 18 ft 16 kts 221°
2026-04-23 06:03 55.60476 12.63126 18 ft 12 kts 211°
2026-04-23 06:03 55.60398 12.63156 18 ft 14 kts 133°
2026-04-23 06:04 55.60343 12.63267 19 ft 9 kts 130°
2026-04-23 06:04 55.60322 12.63318 19 ft 3 kts 104°
2026-04-23 06:04 55.60330 12.63334 19 ft 0 kts 42°
2026-04-23 06:05 55.60331 12.63335 19 ft 1 kts 42°
2026-04-23 06:05 55.60363 12.63386 21 ft 28 kts 41°
2026-04-23 06:05 55.60698 12.63904 20 ft 96 kts 41°
2026-04-23 06:06 55.61344 12.64900 18 ft 148 kts 41°
2026-04-23 06:06 55.62194 12.66222 271 ft 165 kts 39°
2026-04-23 06:06 55.63047 12.67556 873 ft 164 kts 38°
2026-04-23 06:06 55.63906 12.68895 1411 ft 166 kts 38°
2026-04-23 06:07 55.64808 12.70289 1712 ft 180 kts 39°
2026-04-23 06:07 55.65621 12.72046 2103 ft 191 kts 62°
2026-04-23 06:07 55.65916 12.74386 2526 ft 203 kts 90°
2026-04-23 06:07 55.65543 12.76873 2944 ft 220 kts 115°
2026-04-23 06:08 55.64589 12.79172 3301 ft 243 kts 127°
2026-04-23 06:08 55.63467 12.81539 3758 ft 259 kts 127°
2026-04-23 06:08 55.62255 12.84013 4333 ft 272 kts 130°
2026-04-23 06:08 55.60772 12.86101 5118 ft 279 kts 149°
2026-04-23 06:09 55.58909 12.87300 5680 ft 292 kts 170°
2026-04-23 06:09 55.56863 12.87376 6326 ft 298 kts 190°
2026-04-23 06:09 55.54883 12.86294 6969 ft 300 kts 211°
2026-04-23 06:09 55.53192 12.84164 7632 ft 300 kts 230°
2026-04-23 06:10 55.51879 12.81261 8090 ft 307 kts 243°
2026-04-23 06:10 55.50787 12.77944 8538 ft 318 kts 248°
2026-04-23 06:10 55.49761 12.74412 9051 ft 327 kts 249°
2026-04-23 06:10 55.48730 12.70764 9429 ft 341 kts 249°
2026-04-23 06:11 55.47653 12.66900 9606 ft 359 kts 249°
2026-04-23 06:11 55.46536 12.62905 10114 ft 366 kts 249°
2026-04-23 06:11 55.45398 12.58854 10697 ft 371 kts 248°
2026-04-23 06:11 55.44240 12.54761 11313 ft 374 kts 248°
2026-04-23 06:12 55.43068 12.50634 11920 ft 377 kts 248°
2026-04-23 06:12 55.41892 12.46488 12506 ft 380 kts 248°
2026-04-23 06:12 55.39499 12.38095 13631 ft 387 kts 247°
2026-04-23 06:13 55.38287 12.33853 14177 ft 390 kts 247°
2026-04-23 06:13 55.37060 12.29570 14717 ft 393 kts 247°
2026-04-23 06:13 55.35824 12.25263 15242 ft 397 kts 247°
2026-04-23 06:13 55.34577 12.20914 15756 ft 400 kts 248°
2026-04-23 06:14 55.33320 12.16540 16262 ft 403 kts 247°
2026-04-23 06:14 55.32047 12.12130 16757 ft 406 kts 247°
2026-04-23 06:14 55.30763 12.07689 17263 ft 409 kts 247°
2026-04-23 06:14 55.29471 12.03214 17765 ft 413 kts 247°
2026-04-23 06:15 55.28166 11.98695 18263 ft 416 kts 248°
2026-04-23 06:15 55.26851 11.94155 18763 ft 419 kts 247°
2026-04-23 06:15 55.25518 11.89576 19231 ft 423 kts 246°
2026-04-23 06:15 55.24172 11.84957 19685 ft 428 kts 246°
2026-04-23 06:16 55.22810 11.80289 20127 ft 432 kts 246°
2026-04-23 06:16 55.21437 11.75593 20560 ft 436 kts 246°
2026-04-23 06:16 55.20048 11.70855 20954 ft 439 kts 246°
2026-04-23 06:16 55.18643 11.66077 21336 ft 443 kts 246°
2026-04-23 06:17 55.17225 11.61258 21712 ft 446 kts 246°
2026-04-23 06:17 55.15796 11.56415 22070 ft 450 kts 246°
2026-04-23 06:17 55.14356 11.51545 22409 ft 453 kts 245°
2026-04-23 06:17 55.12903 11.46643 22739 ft 455 kts 245°
2026-04-23 06:18 55.11437 11.41711 23058 ft 459 kts 245°
2026-04-23 06:18 55.09962 11.36758 23385 ft 461 kts 245°
2026-04-23 06:18 55.08475 11.31775 23691 ft 464 kts 245°
2026-04-23 06:18 55.06997 11.26825 23992 ft 467 kts 245°
2026-04-23 06:19 55.05491 11.21790 24290 ft 469 kts 245°
2026-04-23 06:19 55.03973 11.16726 24581 ft 471 kts 245°
2026-04-23 06:19 55.02448 11.11655 24903 ft 473 kts 244°
2026-04-23 06:19 55.00917 11.06571 25209 ft 475 kts 244°
2026-04-23 06:20 54.99376 11.01464 25507 ft 477 kts 244°
2026-04-23 06:20 54.97825 10.96350 25797 ft 479 kts 244°
2026-04-23 06:20 54.96262 10.91215 26094 ft 480 kts 244°
2026-04-23 06:20 54.94558 10.86207 26384 ft 483 kts 236°
2026-04-23 06:21 54.92411 10.81685 26654 ft 487 kts 227°
2026-04-23 06:21 54.90060 10.77431 26919 ft 488 kts 227°
2026-04-23 06:21 54.87703 10.73168 27169 ft 490 kts 227°
2026-04-23 06:21 54.85341 10.68894 27427 ft 491 kts 227°
2026-04-23 06:22 54.82973 10.64613 27724 ft 491 kts 227°
2026-04-23 06:22 54.80607 10.60339 28095 ft 490 kts 227°
2026-04-23 06:22 54.78245 10.56084 28441 ft 490 kts 226°
2026-04-23 06:22 54.75877 10.51835 28784 ft 489 kts 226°
2026-04-23 06:23 54.73518 10.47609 29156 ft 488 kts 226°
2026-04-23 06:23 54.71163 10.43385 29513 ft 487 kts 226°
2026-04-23 06:23 54.68804 10.39165 29850 ft 487 kts 226°
2026-04-23 06:23 54.66452 10.34967 30191 ft 486 kts 226°
2026-04-23 06:24 54.64102 10.30782 30535 ft 485 kts 226°
2026-04-23 06:24 54.61751 10.26599 30852 ft 485 kts 226°
2026-04-23 06:24 54.59404 10.22430 31186 ft 484 kts 226°
2026-04-23 06:24 54.57051 10.18261 31489 ft 485 kts 225°
2026-04-23 06:25 54.54690 10.14091 31656 ft 487 kts 225°
2026-04-23 06:25 54.52314 10.09900 31904 ft 488 kts 225°
2026-04-23 06:25 54.49940 10.05718 32180 ft 489 kts 225°
2026-04-23 06:25 54.47566 10.01540 32483 ft 488 kts 225°
2026-04-23 06:26 54.45188 9.97363 32754 ft 488 kts 225°
2026-04-23 06:26 54.42811 9.93200 33058 ft 487 kts 224°
2026-04-23 06:26 54.40436 9.89050 33273 ft 488 kts 224°
2026-04-23 06:26 54.38059 9.84899 33323 ft 487 kts 224°
2026-04-23 06:27 54.33308 9.76609 33321 ft 487 kts 224°
2026-04-23 06:27 54.28547 9.68337 33306 ft 487 kts 224°
2026-04-23 06:28 54.23783 9.60093 33304 ft 487 kts 224°
2026-04-23 06:28 54.19015 9.51860 33301 ft 487 kts 224°
2026-04-23 06:29 54.14238 9.43659 33310 ft 487 kts 224°
2026-04-23 06:29 54.09475 9.35525 33320 ft 487 kts 224°
2026-04-23 06:30 54.04693 9.27358 33331 ft 487 kts 224°
2026-04-23 06:30 53.99913 9.19210 33341 ft 486 kts 224°
2026-04-23 06:31 53.95125 9.11085 33347 ft 486 kts 223°
2026-04-23 06:31 53.90304 9.02944 33354 ft 486 kts 223°
2026-04-23 06:32 53.85515 8.94877 33364 ft 485 kts 223°
2026-04-23 06:32 53.80715 8.86847 33367 ft 485 kts 222°
2026-04-23 06:33 53.75949 8.78887 33372 ft 484 kts 222°
2026-04-23 06:33 53.71160 8.70901 33381 ft 483 kts 222°
2026-04-23 06:34 53.66371 8.62943 33384 ft 482 kts 222°
2026-04-23 06:34 53.61549 8.54977 33379 ft 482 kts 221°
2026-04-23 06:35 53.56761 8.47094 33378 ft 481 kts 222°
2026-04-23 06:35 53.52001 8.39270 33388 ft 481 kts 221°
2026-04-23 06:36 53.47183 8.31364 33404 ft 481 kts 221°
2026-04-23 06:36 53.42429 8.23591 33419 ft 480 kts 221°
2026-04-23 06:37 53.37631 8.15797 33420 ft 480 kts 221°
2026-04-23 06:37 53.32826 8.08008 33421 ft 480 kts 221°
2026-04-23 06:38 53.28031 8.00238 33424 ft 480 kts 221°
2026-04-23 06:38 53.23224 7.92492 33432 ft 479 kts 221°
2026-04-23 06:39 53.18423 7.84791 33437 ft 479 kts 221°
2026-04-23 06:39 53.13623 7.77111 33433 ft 478 kts 220°
2026-04-23 06:40 53.08829 7.69460 33437 ft 477 kts 220°
2026-04-23 06:40 53.04034 7.61825 33440 ft 477 kts 220°
2026-04-23 06:41 52.99232 7.54210 33446 ft 477 kts 220°
2026-04-23 06:41 52.94424 7.46629 33448 ft 477 kts 220°
2026-04-23 06:42 52.89614 7.39059 33449 ft 477 kts 220°
2026-04-23 06:42 52.84807 7.31500 33450 ft 476 kts 220°
2026-04-23 06:43 52.79994 7.23962 33454 ft 476 kts 220°
2026-04-23 06:43 52.75963 7.17675 33460 ft 476 kts 220°
2026-04-23 06:44 52.71152 7.10182 33463 ft 476 kts 220°
2026-04-23 06:44 52.66336 7.02716 33461 ft 475 kts 219°
2026-04-23 06:45 52.61516 6.95272 33460 ft 475 kts 219°
2026-04-23 06:45 52.56699 6.87859 33465 ft 474 kts 219°
2026-04-23 06:46 52.51881 6.80455 33458 ft 474 kts 219°
2026-04-23 06:46 52.47065 6.73078 33463 ft 474 kts 219°
2026-04-23 06:47 52.42252 6.65725 33466 ft 473 kts 219°
2026-04-23 06:47 52.37434 6.58387 33466 ft 472 kts 219°
2026-04-23 06:48 52.32622 6.51089 33470 ft 472 kts 218°
2026-04-23 06:48 52.27839 6.43858 33473 ft 471 kts 218°
2026-04-23 06:49 52.23027 6.36598 33474 ft 471 kts 218°
2026-04-23 06:49 52.18207 6.29367 33477 ft 470 kts 218°
2026-04-23 06:50 52.13398 6.22155 33476 ft 470 kts 218°
2026-04-23 06:50 52.08589 6.14960 33476 ft 470 kts 218°
2026-04-23 06:51 52.03774 6.07784 33480 ft 469 kts 218°
2026-04-23 06:51 51.98954 6.00632 33481 ft 469 kts 218°
2026-04-23 06:52 51.94138 5.93502 33482 ft 469 kts 218°
2026-04-23 06:52 51.89320 5.86378 33481 ft 469 kts 218°
2026-04-23 06:53 51.84495 5.79291 33481 ft 468 kts 217°
2026-04-23 06:53 51.79669 5.72229 33482 ft 468 kts 217°
2026-04-23 06:54 51.74843 5.65171 33480 ft 468 kts 217°
2026-04-23 06:54 51.70020 5.58128 33478 ft 468 kts 217°
2026-04-23 06:55 51.65189 5.51110 33477 ft 467 kts 217°
2026-04-23 06:55 51.60360 5.44114 33478 ft 467 kts 217°
2026-04-23 06:56 51.55532 5.37137 33474 ft 466 kts 217°
2026-04-23 06:56 51.50709 5.30187 33468 ft 465 kts 217°
2026-04-23 06:57 51.45889 5.23269 33463 ft 464 kts 217°
2026-04-23 06:57 51.41076 5.16382 33462 ft 464 kts 217°
2026-04-23 06:58 51.36263 5.09511 33466 ft 463 kts 217°
2026-04-23 06:58 51.31450 5.02647 33463 ft 463 kts 216°
2026-04-23 06:59 51.26641 4.95804 33468 ft 463 kts 216°
2026-04-23 06:59 51.21827 4.88989 33469 ft 462 kts 216°
2026-04-23 07:00 51.17010 4.82202 33471 ft 462 kts 216°
2026-04-23 07:00 51.12193 4.75429 33473 ft 462 kts 216°
2026-04-23 07:01 51.07374 4.68669 33472 ft 461 kts 216°
2026-04-23 07:01 51.02561 4.61932 33467 ft 461 kts 216°
2026-04-23 07:02 50.97747 4.55209 33464 ft 461 kts 216°
2026-04-23 07:02 50.92927 4.48502 33458 ft 461 kts 216°
2026-04-23 07:03 50.88105 4.41802 33459 ft 460 kts 216°
2026-04-23 07:03 50.83279 4.35140 33453 ft 460 kts 216°
2026-04-23 07:04 50.78449 4.28490 33448 ft 460 kts 216°
2026-04-23 07:04 50.73629 4.21845 33449 ft 460 kts 216°
2026-04-23 07:05 50.68800 4.15213 33447 ft 460 kts 216°
2026-04-23 07:05 50.63966 4.08605 33446 ft 460 kts 216°
2026-04-23 07:06 50.58769 4.03054 33445 ft 452 kts 204°
2026-04-23 07:06 50.53243 3.98322 33445 ft 452 kts 204°
2026-04-23 07:07 50.47729 3.93573 33436 ft 452 kts 204°
2026-04-23 07:07 50.42195 3.88832 33434 ft 453 kts 204°
2026-04-23 07:08 50.36659 3.84116 33433 ft 453 kts 204°
2026-04-23 07:08 50.31127 3.79414 33434 ft 453 kts 204°
2026-04-23 07:09 50.25588 3.74718 33433 ft 453 kts 204°
2026-04-23 07:09 50.20048 3.70029 33433 ft 453 kts 204°
2026-04-23 07:10 50.14509 3.65348 33430 ft 453 kts 204°
2026-04-23 07:10 50.08967 3.60680 33426 ft 453 kts 204°
2026-04-23 07:11 50.03423 3.56026 33424 ft 453 kts 204°
2026-04-23 07:12 49.95095 3.49055 33418 ft 453 kts 205°
2026-04-23 07:12 49.89527 3.44423 33404 ft 454 kts 205°
2026-04-23 07:13 49.83952 3.39781 33398 ft 455 kts 205°
2026-04-23 07:13 49.78363 3.35141 33396 ft 456 kts 205°
2026-04-23 07:14 49.72751 3.30499 33389 ft 457 kts 205°
2026-04-23 07:14 49.67139 3.25866 33388 ft 458 kts 206°
2026-04-23 07:15 49.61509 3.21221 33389 ft 459 kts 206°
2026-04-23 07:15 49.55861 3.16591 33382 ft 460 kts 206°
2026-04-23 07:16 49.50202 3.11965 33391 ft 461 kts 206°
2026-04-23 07:16 49.44747 3.06749 33384 ft 462 kts 212°
2026-04-23 07:17 49.39377 3.01286 33380 ft 463 kts 213°
2026-04-23 07:17 49.34028 2.95857 33381 ft 464 kts 213°
2026-04-23 07:18 49.28635 2.90409 33381 ft 465 kts 213°
2026-04-23 07:18 49.23191 2.84915 33381 ft 466 kts 213°
2026-04-23 07:19 49.17773 2.79462 33381 ft 466 kts 213°
2026-04-23 07:19 49.12378 2.74058 33375 ft 467 kts 213°
2026-04-23 07:20 49.06909 2.68593 33374 ft 467 kts 214°
2026-04-23 07:20 49.01465 2.63159 33374 ft 468 kts 214°
2026-04-23 07:21 48.96017 2.57734 33373 ft 468 kts 214°
2026-04-23 07:21 48.90589 2.52344 33372 ft 469 kts 214°
2026-04-23 07:22 48.85112 2.46934 33371 ft 469 kts 214°
2026-04-23 07:22 48.80522 2.42409 33367 ft 470 kts 215°
2026-04-23 07:23 48.75040 2.37005 33364 ft 470 kts 215°
2026-04-23 07:23 48.69540 2.31598 33358 ft 471 kts 216°
2026-04-23 07:24 48.64035 2.26206 33355 ft 472 kts 216°
2026-04-23 07:24 48.58467 2.20933 33350 ft 474 kts 210°
2026-04-23 07:25 48.52199 2.17683 33343 ft 481 kts 194°
2026-04-23 07:25 48.45646 2.15582 33334 ft 482 kts 194°
2026-04-23 07:26 48.39077 2.13456 33328 ft 483 kts 195°
2026-04-23 07:26 48.32501 2.11338 33319 ft 484 kts 195°
2026-04-23 07:27 48.25756 2.10620 33305 ft 491 kts 176°
2026-04-23 07:27 48.18976 2.12005 33297 ft 493 kts 173°
2026-04-23 07:28 48.12190 2.12852 33292 ft 490 kts 186°
2026-04-23 07:28 48.05443 2.11650 33291 ft 488 kts 191°
2026-04-23 07:29 47.98696 2.10349 33287 ft 489 kts 190°
2026-04-23 07:29 47.91935 2.09061 33287 ft 490 kts 190°
2026-04-23 07:30 47.85120 2.07767 33290 ft 490 kts 190°
2026-04-23 07:30 47.78387 2.06502 33291 ft 491 kts 190°
2026-04-23 07:31 47.71608 2.05204 33294 ft 491 kts 190°
2026-04-23 07:31 47.64830 2.03860 33297 ft 490 kts 194°
2026-04-23 07:32 47.58407 2.00799 33302 ft 483 kts 206°
2026-04-23 07:32 47.52107 1.97127 33304 ft 483 kts 206°
2026-04-23 07:33 47.45850 1.93496 33303 ft 483 kts 206°
2026-04-23 07:33 47.39587 1.89885 33302 ft 483 kts 206°
2026-04-23 07:34 47.33318 1.86290 33299 ft 483 kts 206°
2026-04-23 07:34 47.27062 1.82701 33296 ft 482 kts 206°
2026-04-23 07:35 47.20814 1.79125 33294 ft 481 kts 206°
2026-04-23 07:35 47.14570 1.75587 33290 ft 480 kts 206°
2026-04-23 07:36 47.08332 1.72082 33286 ft 480 kts 206°
2026-04-23 07:36 47.02128 1.68599 33283 ft 479 kts 206°
2026-04-23 07:37 46.95906 1.65110 33281 ft 478 kts 206°
2026-04-23 07:37 46.89679 1.61629 33273 ft 478 kts 206°
2026-04-23 07:38 46.83464 1.58168 33266 ft 478 kts 206°
2026-04-23 07:38 46.77248 1.54710 33266 ft 478 kts 206°
2026-04-23 07:39 46.71037 1.51260 33270 ft 477 kts 206°
2026-04-23 07:39 46.64826 1.47822 33266 ft 477 kts 206°
2026-04-23 07:40 46.58613 1.44397 33263 ft 477 kts 206°
2026-04-23 07:40 46.52398 1.40973 33262 ft 477 kts 206°
2026-04-23 07:41 46.46190 1.37566 33251 ft 477 kts 206°
2026-04-23 07:41 46.39985 1.34169 33244 ft 476 kts 207°
2026-04-23 07:42 46.33789 1.30780 33237 ft 476 kts 207°
2026-04-23 07:42 46.27597 1.27396 33237 ft 476 kts 206°
2026-04-23 07:43 46.21402 1.24032 33230 ft 475 kts 206°
2026-04-23 07:43 46.15211 1.20678 33225 ft 475 kts 206°
2026-04-23 07:44 46.09017 1.17312 33220 ft 475 kts 206°
2026-04-23 07:44 46.02824 1.13959 33212 ft 476 kts 206°
2026-04-23 07:45 45.96618 1.10620 33211 ft 476 kts 206°
2026-04-23 07:45 45.90419 1.07293 33213 ft 474 kts 206°
2026-04-23 07:46 45.84247 1.03973 33210 ft 472 kts 209°
2026-04-23 07:46 45.78762 0.99160 33208 ft 455 kts 226°
2026-04-23 07:47 45.73947 0.93353 33205 ft 455 kts 226°
2026-04-23 07:47 45.69088 0.87560 33202 ft 455 kts 226°
2026-04-23 07:48 45.64217 0.81771 33198 ft 455 kts 226°
2026-04-23 07:48 45.59351 0.75990 33197 ft 455 kts 226°
2026-04-23 07:49 45.54479 0.70202 33195 ft 455 kts 226°
2026-04-23 07:49 45.49612 0.64427 33197 ft 455 kts 225°
2026-04-23 07:50 45.44737 0.58665 33194 ft 455 kts 225°
2026-04-23 07:50 45.39857 0.52924 33186 ft 455 kts 225°
2026-04-23 07:51 45.34982 0.47190 33188 ft 455 kts 225°
2026-04-23 07:51 45.30108 0.41454 33180 ft 455 kts 225°
2026-04-23 07:52 45.25228 0.35737 33186 ft 455 kts 225°
2026-04-23 07:52 45.20365 0.30051 33186 ft 455 kts 225°
2026-04-23 07:53 45.15446 0.24327 33185 ft 454 kts 225°
2026-04-23 07:53 45.10559 0.18650 33177 ft 454 kts 225°
2026-04-23 07:54 45.05667 0.12973 33180 ft 454 kts 225°
2026-04-23 07:54 45.00801 0.07347 33179 ft 454 kts 225°
2026-04-23 07:55 44.95880 0.01661 33174 ft 454 kts 224°
2026-04-23 07:55 44.90993 -0.03977 33176 ft 453 kts 224°
2026-04-23 07:56 44.86122 -0.09578 33183 ft 451 kts 223°
2026-04-23 07:56 44.81269 -0.15151 33187 ft 449 kts 223°
2026-04-23 07:57 44.76433 -0.20696 33175 ft 448 kts 223°
2026-04-23 07:57 44.71594 -0.26218 33169 ft 447 kts 223°
2026-04-23 07:58 44.66759 -0.31708 33162 ft 447 kts 223°
2026-04-23 07:58 44.61498 -0.36350 33147 ft 453 kts 212°
2026-04-23 07:59 44.55918 -0.40446 33141 ft 453 kts 212°
2026-04-23 07:59 44.50341 -0.44538 33138 ft 453 kts 212°
2026-04-23 08:00 44.45701 -0.47942 33136 ft 453 kts 212°
2026-04-23 08:00 44.40080 -0.52049 33132 ft 452 kts 212°
2026-04-23 08:01 44.34503 -0.56125 33128 ft 452 kts 212°
2026-04-23 08:01 44.28955 -0.60163 33126 ft 452 kts 212°
2026-04-23 08:02 44.23381 -0.64221 33120 ft 452 kts 212°
2026-04-23 08:02 44.17801 -0.68271 33115 ft 452 kts 212°
2026-04-23 08:03 44.12198 -0.72320 33110 ft 452 kts 212°
2026-04-23 08:03 44.06617 -0.76350 33105 ft 452 kts 212°
2026-04-23 08:04 44.01032 -0.80373 33102 ft 453 kts 212°
2026-04-23 08:04 43.95478 -0.84370 33106 ft 452 kts 212°
2026-04-23 08:05 43.89890 -0.88385 33115 ft 452 kts 212°
2026-04-23 08:05 43.84310 -0.92385 33118 ft 451 kts 212°
2026-04-23 08:06 43.78717 -0.96373 33117 ft 451 kts 212°
2026-04-23 08:06 43.73135 -1.00343 33118 ft 451 kts 212°
2026-04-23 08:07 43.67555 -1.04315 33116 ft 451 kts 212°
2026-04-23 08:07 43.61970 -1.08282 33116 ft 451 kts 211°
2026-04-23 08:08 43.56391 -1.12237 33109 ft 451 kts 212°
2026-04-23 08:08 43.50816 -1.16192 33111 ft 451 kts 212°
2026-04-23 08:09 43.45230 -1.20135 33110 ft 451 kts 211°
2026-04-23 08:09 43.39641 -1.24058 33108 ft 451 kts 211°
2026-04-23 08:10 43.34061 -1.27982 33104 ft 451 kts 211°
2026-04-23 08:10 43.25692 -1.33858 33102 ft 450 kts 211°
2026-04-23 08:11 43.20108 -1.37760 33106 ft 450 kts 211°
2026-04-23 08:11 43.17310 -1.39705 33249 ft 450 kts 211°
2026-04-23 08:11 43.14518 -1.41642 33528 ft 450 kts 211°
2026-04-23 08:12 43.11726 -1.43579 33864 ft 449 kts 211°
2026-04-23 08:12 43.08945 -1.45516 34090 ft 449 kts 212°
2026-04-23 08:12 43.03394 -1.49393 34135 ft 447 kts 211°
2026-04-23 08:13 42.97853 -1.53252 34136 ft 447 kts 211°
2026-04-23 08:13 42.92309 -1.57107 34148 ft 446 kts 211°
2026-04-23 08:14 42.86780 -1.60938 34154 ft 446 kts 211°
2026-04-23 08:14 42.81242 -1.64766 34156 ft 446 kts 211°
2026-04-23 08:15 42.75701 -1.68587 34168 ft 446 kts 211°
2026-04-23 08:15 42.70152 -1.72395 34174 ft 447 kts 211°
2026-04-23 08:16 42.64581 -1.76141 34179 ft 446 kts 211°
2026-04-23 08:16 42.59002 -1.79863 34178 ft 446 kts 211°
2026-04-23 08:17 42.53467 -1.83563 34378 ft 446 kts 211°
2026-04-23 08:17 42.50692 -1.85425 34761 ft 444 kts 211°
2026-04-23 08:17 42.47888 -1.87305 35082 ft 444 kts 211°
2026-04-23 08:18 42.42397 -1.90978 35155 ft 442 kts 211°
2026-04-23 08:18 42.36884 -1.94652 35146 ft 442 kts 211°
2026-04-23 08:19 42.31371 -1.98316 35146 ft 441 kts 211°
2026-04-23 08:19 42.25861 -2.01977 35146 ft 441 kts 211°
2026-04-23 08:20 42.20353 -2.05627 35148 ft 441 kts 211°
2026-04-23 08:20 42.14838 -2.09268 35153 ft 441 kts 211°
2026-04-23 08:21 42.09322 -2.12916 35154 ft 442 kts 211°
2026-04-23 08:21 42.03802 -2.16559 35155 ft 442 kts 211°
2026-04-23 08:22 41.98280 -2.20181 35157 ft 442 kts 211°
2026-04-23 08:22 41.92756 -2.23801 35159 ft 442 kts 211°
2026-04-23 08:23 41.87235 -2.27423 35158 ft 442 kts 210°
2026-04-23 08:23 41.81703 -2.31036 35161 ft 442 kts 210°
2026-04-23 08:24 41.76179 -2.34636 35162 ft 442 kts 210°
2026-04-23 08:24 41.70652 -2.38223 35162 ft 441 kts 210°
2026-04-23 08:25 41.65122 -2.41804 35161 ft 440 kts 210°
2026-04-23 08:25 41.59604 -2.45391 35161 ft 440 kts 210°
2026-04-23 08:26 41.54089 -2.48976 35163 ft 440 kts 210°
2026-04-23 08:26 41.48573 -2.52536 35164 ft 440 kts 210°
2026-04-23 08:27 41.43062 -2.56087 35163 ft 440 kts 210°
2026-04-23 08:27 41.37550 -2.59634 35160 ft 440 kts 210°
2026-04-23 08:28 41.31751 -2.62308 35158 ft 448 kts 193°
2026-04-23 08:28 41.28627 -2.62625 35154 ft 453 kts 182°
2026-04-23 08:28 41.25477 -2.62367 35151 ft 454 kts 180°
2026-04-23 08:29 41.19163 -2.61780 35147 ft 454 kts 180°
2026-04-23 08:29 41.12845 -2.61217 35141 ft 455 kts 180°
2026-04-23 08:30 41.06531 -2.60665 35148 ft 455 kts 180°
2026-04-23 08:30 41.00216 -2.60100 35147 ft 455 kts 180°
2026-04-23 08:31 40.93903 -2.59543 35142 ft 455 kts 180°
2026-04-23 08:31 40.87585 -2.58979 35145 ft 455 kts 180°
2026-04-23 08:32 40.81259 -2.58400 35150 ft 455 kts 180°
2026-04-23 08:32 40.74930 -2.57825 35157 ft 456 kts 180°
2026-04-23 08:33 40.68608 -2.57256 35160 ft 455 kts 180°
2026-04-23 08:33 40.62287 -2.56699 35160 ft 455 kts 180°
2026-04-23 08:34 40.55964 -2.56132 35156 ft 455 kts 180°
2026-04-23 08:34 40.49643 -2.55558 35154 ft 455 kts 180°
2026-04-23 08:35 40.43327 -2.54996 35149 ft 455 kts 180°
2026-04-23 08:35 40.37052 -2.55128 35133 ft 448 kts 194°
2026-04-23 08:36 40.31166 -2.57492 35129 ft 441 kts 205°
2026-04-23 08:36 40.25427 -2.60374 35126 ft 442 kts 205°
2026-04-23 08:37 40.19684 -2.63249 35131 ft 443 kts 205°
2026-04-23 08:37 40.14903 -2.65640 35132 ft 443 kts 205°
2026-04-23 08:38 40.09150 -2.68519 35141 ft 443 kts 205°
2026-04-23 08:38 40.03397 -2.71392 35142 ft 443 kts 205°
2026-04-23 08:39 39.97642 -2.74251 35142 ft 442 kts 204°
2026-04-23 08:39 39.91894 -2.77110 35139 ft 442 kts 204°
2026-04-23 08:40 39.86150 -2.79966 35146 ft 442 kts 204°
2026-04-23 08:40 39.80405 -2.82811 35147 ft 442 kts 204°
2026-04-23 08:41 39.74657 -2.85646 35148 ft 442 kts 204°
2026-04-23 08:41 39.68904 -2.88488 35149 ft 442 kts 204°
2026-04-23 08:42 39.63164 -2.91322 35149 ft 441 kts 204°
2026-04-23 08:42 39.57427 -2.94143 35150 ft 441 kts 204°
2026-04-23 08:43 39.51698 -2.96966 35149 ft 440 kts 204°
2026-04-23 08:43 39.45977 -2.99786 35134 ft 440 kts 204°
2026-04-23 08:44 39.40258 -3.02597 35131 ft 439 kts 204°
2026-04-23 08:44 39.34544 -3.05392 35129 ft 439 kts 204°
2026-04-23 08:45 39.28820 -3.08177 35130 ft 439 kts 204°
2026-04-23 08:45 39.23098 -3.10959 35132 ft 439 kts 204°
2026-04-23 08:46 39.17383 -3.13731 35130 ft 439 kts 204°
2026-04-23 08:46 39.11670 -3.16496 35133 ft 438 kts 204°
2026-04-23 08:47 39.05956 -3.19263 35132 ft 438 kts 204°
2026-04-23 08:47 39.00250 -3.22020 35133 ft 438 kts 204°
2026-04-23 08:48 38.94543 -3.24765 35134 ft 438 kts 204°
2026-04-23 08:48 38.88841 -3.27509 35126 ft 437 kts 204°
2026-04-23 08:49 38.83139 -3.30242 35121 ft 437 kts 204°
2026-04-23 08:49 38.77444 -3.32968 35113 ft 437 kts 204°
2026-04-23 08:50 38.71750 -3.35690 35108 ft 437 kts 204°
2026-04-23 08:50 38.66056 -3.38410 35104 ft 437 kts 204°
2026-04-23 08:51 38.60366 -3.41122 35099 ft 436 kts 204°
2026-04-23 08:51 38.54680 -3.43833 35097 ft 436 kts 204°
2026-04-23 08:52 38.48989 -3.46539 35080 ft 436 kts 204°
2026-04-23 08:52 38.43304 -3.49228 35087 ft 436 kts 204°
2026-04-23 08:53 38.37612 -3.51917 35084 ft 436 kts 204°
2026-04-23 08:53 38.31926 -3.54606 35079 ft 436 kts 204°
2026-04-23 08:54 38.26240 -3.57290 35085 ft 436 kts 204°
2026-04-23 08:54 38.20518 -3.59985 35077 ft 435 kts 204°
2026-04-23 08:55 38.15339 -3.63758 35068 ft 427 kts 223°
2026-04-23 08:55 38.11544 -3.69396 34941 ft 424 kts 237°
2026-04-23 08:56 38.09867 -3.72523 34649 ft 423 kts 237°
2026-04-23 08:56 38.08230 -3.75578 34401 ft 424 kts 237°
2026-04-23 08:56 38.06572 -3.78666 33883 ft 424 kts 237°
2026-04-23 08:56 38.04912 -3.81756 33306 ft 422 kts 237°
2026-04-23 08:57 38.03260 -3.84827 32714 ft 421 kts 237°
2026-04-23 08:57 38.01614 -3.87884 32191 ft 418 kts 237°
2026-04-23 08:57 37.99981 -3.90918 31664 ft 415 kts 237°
2026-04-23 08:57 37.98361 -3.93933 31142 ft 413 kts 237°
2026-04-23 08:58 37.96747 -3.96926 30616 ft 410 kts 236°
2026-04-23 08:58 37.95143 -3.99893 30086 ft 407 kts 236°
2026-04-23 08:58 37.93545 -4.02846 29553 ft 405 kts 236°
2026-04-23 08:58 37.91957 -4.05779 29038 ft 403 kts 236°
2026-04-23 08:59 37.90371 -4.08706 28506 ft 401 kts 236°
2026-04-23 08:59 37.88795 -4.11609 27982 ft 399 kts 236°
2026-04-23 08:59 37.87229 -4.14494 27457 ft 397 kts 236°
2026-04-23 08:59 37.85666 -4.17373 26929 ft 395 kts 236°
2026-04-23 09:00 37.84113 -4.20230 26407 ft 393 kts 236°
2026-04-23 09:00 37.82566 -4.23078 25879 ft 392 kts 236°
2026-04-23 09:00 37.81024 -4.25920 25351 ft 391 kts 236°
2026-04-23 09:00 37.79483 -4.28751 24830 ft 390 kts 236°
2026-04-23 09:01 37.77941 -4.31575 24302 ft 390 kts 236°
2026-04-23 09:01 37.76402 -4.34389 23778 ft 389 kts 236°
2026-04-23 09:01 37.74736 -4.37073 23245 ft 389 kts 225°
2026-04-23 09:01 37.72553 -4.39087 22725 ft 390 kts 209°
2026-04-23 09:02 37.70136 -4.40634 22218 ft 390 kts 208°
2026-04-23 09:02 37.67710 -4.42157 21724 ft 389 kts 207°
2026-04-23 09:02 37.65279 -4.43658 21220 ft 387 kts 207°
2026-04-23 09:02 37.62864 -4.45156 20730 ft 385 kts 207°
2026-04-23 09:03 37.60469 -4.46644 20257 ft 383 kts 208°
2026-04-23 09:03 37.58086 -4.48127 19779 ft 380 kts 208°
2026-04-23 09:03 37.55727 -4.49600 19326 ft 377 kts 208°
2026-04-23 09:03 37.53390 -4.51060 18902 ft 372 kts 208°
2026-04-23 09:04 37.51079 -4.52501 18478 ft 368 kts 208°
2026-04-23 09:04 37.48802 -4.53923 18049 ft 363 kts 208°
2026-04-23 09:04 37.46554 -4.55328 17623 ft 359 kts 208°
2026-04-23 09:04 37.44334 -4.56715 17193 ft 354 kts 208°
2026-04-23 09:05 37.42140 -4.58083 16772 ft 350 kts 207°
2026-04-23 09:05 37.39968 -4.59428 16348 ft 346 kts 207°
2026-04-23 09:05 37.37819 -4.60758 15918 ft 342 kts 207°
2026-04-23 09:05 37.35695 -4.62074 15495 ft 339 kts 207°
2026-04-23 09:06 37.33592 -4.63378 15069 ft 335 kts 206°
2026-04-23 09:06 37.31513 -4.64670 14642 ft 332 kts 206°
2026-04-23 09:06 37.29454 -4.65949 14213 ft 329 kts 206°
2026-04-23 09:06 37.27408 -4.67216 13789 ft 325 kts 206°
2026-04-23 09:07 37.25388 -4.68468 13366 ft 323 kts 206°
2026-04-23 09:07 37.23377 -4.69712 12937 ft 321 kts 206°
2026-04-23 09:07 37.21377 -4.70947 12510 ft 319 kts 206°
2026-04-23 09:07 37.19386 -4.72176 12085 ft 316 kts 206°
2026-04-23 09:08 37.17442 -4.73376 11655 ft 307 kts 206°
2026-04-23 09:08 37.15554 -4.74540 11235 ft 298 kts 205°
2026-04-23 09:08 37.13717 -4.75671 10861 ft 290 kts 205°
2026-04-23 09:08 37.11930 -4.76770 10480 ft 282 kts 205°
2026-04-23 09:09 37.10192 -4.77843 10109 ft 275 kts 205°
2026-04-23 09:09 37.08513 -4.78879 9734 ft 269 kts 204°
2026-04-23 09:09 37.06806 -4.79776 9357 ft 263 kts 193°
2026-04-23 09:09 37.05026 -4.80071 8981 ft 256 kts 179°
2026-04-23 09:10 37.03262 -4.80045 8604 ft 251 kts 178°
2026-04-23 09:10 36.99812 -4.80002 7852 ft 245 kts 179°
2026-04-23 09:10 36.98118 -4.79983 7471 ft 242 kts 178°
2026-04-23 09:11 36.96451 -4.79964 7099 ft 239 kts 178°
2026-04-23 09:11 36.94801 -4.79948 6721 ft 235 kts 178°
2026-04-23 09:11 36.93200 -4.79852 6492 ft 227 kts 168°
2026-04-23 09:11 36.91699 -4.79288 6291 ft 225 kts 160°
2026-04-23 09:12 36.90226 -4.78643 6089 ft 224 kts 160°
2026-04-23 09:12 36.88750 -4.78000 5890 ft 225 kts 160°
2026-04-23 09:12 36.87279 -4.77361 5687 ft 223 kts 159°
2026-04-23 09:12 36.85883 -4.76511 5488 ft 224 kts 151°
2026-04-23 09:13 36.84517 -4.75585 5281 ft 224 kts 151°
2026-04-23 09:13 36.83145 -4.74661 5082 ft 223 kts 151°
2026-04-23 09:13 36.81779 -4.73743 4829 ft 223 kts 150°
2026-04-23 09:13 36.80408 -4.72824 4456 ft 225 kts 150°
2026-04-23 09:14 36.79019 -4.71892 4086 ft 229 kts 150°
2026-04-23 09:14 36.77677 -4.70791 3619 ft 234 kts 132°
2026-04-23 09:14 36.76776 -4.69118 3286 ft 232 kts 116°
2026-04-23 09:14 36.76285 -4.67939 3080 ft 229 kts 116°
2026-04-23 09:15 36.75569 -4.66215 2770 ft 218 kts 115°
2026-04-23 09:15 36.74886 -4.64581 2488 ft 206 kts 115°
2026-04-23 09:15 36.74244 -4.63044 2226 ft 195 kts 116°
2026-04-23 09:15 36.73636 -4.61592 2007 ft 183 kts 116°
2026-04-23 09:16 36.73062 -4.60220 1735 ft 174 kts 116°
2026-04-23 09:16 36.72522 -4.58933 1507 ft 161 kts 116°
2026-04-23 09:16 36.72029 -4.57757 1325 ft 145 kts 116°
2026-04-23 09:16 36.71574 -4.56672 1120 ft 139 kts 116°
2026-04-23 09:17 36.71140 -4.55621 948 ft 135 kts 117°
2026-04-23 09:17 36.70697 -4.54576 812 ft 136 kts 116°
2026-04-23 09:17 36.70268 -4.53525 612 ft 135 kts 117°
2026-04-23 09:17 36.69830 -4.52489 406 ft 135 kts 117°
2026-04-23 09:18 36.69394 -4.51464 218 ft 135 kts 117°
2026-04-23 09:18 36.68959 -4.50429 60 ft 128 kts 116°
2026-04-23 09:18 36.68605 -4.49592 47 ft 86 kts 118°
2026-04-23 09:18 36.68410 -4.49125 46 ft 36 kts 118°
2026-04-23 09:19 36.68279 -4.48936 43 ft 27 kts 140°
2026-04-23 09:19 36.68165 -4.48849 39 ft 9 kts 170°
2026-04-23 09:19 36.68131 -4.48887 40 ft 7 kts 255°
2026-04-23 09:19 36.68151 -4.48952 40 ft 9 kts 298°
2026-04-23 09:20 36.68184 -4.49029 38 ft 11 kts 296°
2026-04-23 09:20 36.68223 -4.49125 40 ft 14 kts 298°
2026-04-23 09:20 36.68268 -4.49232 40 ft 13 kts 297°
2026-04-23 09:20 36.68267 -4.49333 40 ft 13 kts 232°
2026-04-23 09:21 36.68198 -4.49410 42 ft 13 kts 221°
2026-04-23 09:21 36.68124 -4.49492 42 ft 15 kts 221°
2026-04-23 09:21 36.68052 -4.49571 42 ft 12 kts 221°
2026-04-23 09:21 36.67989 -4.49641 42 ft 13 kts 221°
2026-04-23 09:22 36.67921 -4.49717 42 ft 14 kts 222°
2026-04-23 09:22 36.67850 -4.49796 42 ft 11 kts 220°
2026-04-23 09:22 36.67787 -4.49784 42 ft 11 kts 132°
2026-04-23 09:22 36.67729 -4.49700 42 ft 14 kts 131°
2026-04-23 09:23 36.67691 -4.49630 42 ft 5 kts 83°
2026-04-23 09:23 36.67717 -4.49596 42 ft 7 kts 39°
2026-04-23 09:23 36.67735 -4.49578 42 ft 0 kts 41°